Location: La Brionne
(46.1728°N, 1.7849°E)
Time: 08:26:53
(UTC+00:00)

SL-14 R/B - Pass Details

Date: 16 June 2021
Orbit: 518 x 554 km, 82.4° (Epoch: 02 August)

Event Time Altitude Azimuth Distance (km) Brightness Sun altitude
Exits shadow 21:16:18 18° 137° (SE) 1,402 4.7 -11.8°
Maximum altitude 21:18:28 29° 90° (E) 1,045 4.4 -12.1°
Drops below altitude 10° 21:21:58 10° 31° (NNE) 1,841 6.3 -12.4°
Sets 21:24:20 0° 20° (NNE) 2,736 7.4 -12.7°
